Time,TemperatureF,DewpointF,PressureIn,WindDirection,WindDirectionDegrees,WindSpeedMPH,WindSpeedGustMPH,Humidity,HourlyPrecipIn,Conditions,Clouds,dailyrainin,SoftwareType,DateUTC
2013-01-01 00:27:00,47.7,26.9,30.13,WNW,298,0.0,4.0,44,0.00,,---,0.00,VWS V13.01,2013-01-01 05:27:00,
2013-01-01 00:57:00,47.3,27.0,30.12,SW,216,0.0,3.0,45,0.00,,---,0.00,VWS V13.01,2013-01-01 05:57:00,
2013-01-01 01:27:00,46.9,26.7,30.09,SW,225,0.0,5.0,45,0.00,,---,0.00,VWS V13.01,2013-01-01 06:27:00,
2013-01-01 01:57:00,46.9,27.2,30.09,WNW,297,0.0,8.0,46,0.00,,---,0.00,VWS V13.01,2013-01-01 06:57:00,
2013-01-01 02:27:00,46.7,27.0,30.09,WNW,291,0.0,5.0,46,0.00,,---,0.00,VWS V13.01,2013-01-01 07:27:00,
2013-01-01 02:57:00,46.4,27.8,30.10,SW,222,0.0,11.0,48,0.00,,---,0.00,VWS V13.01,2013-01-01 07:57:00,
2013-01-01 03:27:00,46.5,29.4,30.10,South,188,3.0,6.0,51,0.00,,---,0.00,VWS V13.01,2013-01-01 08:27:00,
2013-01-01 03:57:00,46.5,29.8,30.08,SW,219,0.0,4.0,52,0.00,,---,0.00,VWS V13.01,2013-01-01 08:57:00,
2013-01-01 04:27:00,46.0,29.4,30.08,SW,220,2.0,5.0,52,0.00,,---,0.00,VWS V13.01,2013-01-01 09:27:00,
2013-01-01 04:57:00,45.8,29.7,30.08,SW,216,0.0,3.0,53,0.00,,---,0.00,VWS V13.01,2013-01-01 09:57:00,
2013-01-01 05:27:00,46.2,30.0,30.07,SSW,192,0.0,5.0,53,0.00,,---,0.00,VWS V13.01,2013-01-01 10:27:00,
2013-01-01 05:57:00,46.7,31.4,30.06,ESE,112,0.0,5.0,55,0.00,,---,0.00,VWS V13.01,2013-01-01 10:57:00,
2013-01-01 06:27:00,46.9,32.0,30.06,SW,214,1.0,5.0,56,0.00,,---,0.00,VWS V13.01,2013-01-01 11:27:00,
2013-01-01 06:57:00,47.3,33.7,30.08,South,186,0.0,6.0,59,0.00,,---,0.00,VWS V13.01,2013-01-01 11:57:00,
2013-01-01 07:27:00,48.3,36.7,30.08,West,275,0.0,6.0,64,0.00,,---,0.00,VWS V13.01,2013-01-01 12:27:00,
2013-01-01 07:57:00,47.1,34.4,30.10,NW,321,0.0,5.0,61,0.00,,---,0.00,VWS V13.01,2013-01-01 12:57:00,
2013-01-01 08:27:00,46.1,36.5,30.10,NNW,336,0.0,5.0,69,0.00,,---,0.00,VWS V13.01,2013-01-01 13:27:00,
2013-01-01 08:57:00,44.6,38.5,30.10,NNW,336,0.0,0.0,79,0.00,,---,0.00,VWS V13.01,2013-01-01 13:57:00,
2013-01-01 09:27:00,44.0,38.9,30.09,NNW,336,0.0,0.0,82,0.00,,---,0.00,VWS V13.01,2013-01-01 14:27:00,
2013-01-01 09:57:00,43.9,40.0,30.09,NNW,336,0.0,1.0,86,0.00,,---,0.00,VWS V13.01,2013-01-01 14:57:00,
2013-01-01 10:27:00,45.2,42.2,30.10,NNW,336,0.0,1.0,89,0.00,,---,0.00,VWS V13.01,2013-01-01 15:27:00,
2013-01-01 10:57:00,46.0,43.2,30.10,NNW,336,0.0,1.0,90,0.00,,---,0.00,VWS V13.01,2013-01-01 15:57:00,
2013-01-01 11:27:00,47.2,44.7,30.08,NNW,336,0.0,1.0,91,0.00,,---,0.00,VWS V13.01,2013-01-01 16:27:00,
2013-01-01 11:57:00,47.6,44.8,30.07,NNW,336,0.0,0.0,90,0.00,,---,0.00,VWS V13.01,2013-01-01 16:57:00,
2013-01-01 12:27:00,48.2,45.4,30.04,NNW,336,0.0,0.0,90,0.00,,---,0.00,VWS V13.01,2013-01-01 17:27:00,
2013-01-01 12:57:00,48.5,46.0,30.03,NNW,337,0.0,1.0,91,0.00,,---,0.00,VWS V13.01,2013-01-01 17:57:00,
2013-01-01 13:27:00,47.1,44.6,30.03,NNW,338,0.0,4.0,91,0.00,,---,0.00,VWS V13.01,2013-01-01 18:27:00,
2013-01-01 13:57:00,47.3,44.8,30.03,NNW,338,2.0,2.0,91,0.00,,---,0.00,VWS V13.01,2013-01-01 18:57:00,
2013-01-01 14:27:00,47.5,45.3,29.99,NNW,338,0.0,2.0,92,0.00,,---,0.00,VWS V13.01,2013-01-01 19:27:00,
2013-01-01 14:57:00,48.0,46.1,30.00,NNW,338,0.0,2.0,93,0.00,,---,0.00,VWS V13.01,2013-01-01 19:57:00,
2013-01-01 15:27:00,48.7,47.0,30.00,SSW,210,0.0,3.0,94,0.00,,---,0.00,VWS V13.01,2013-01-01 20:27:00,
2013-01-01 15:57:00,48.7,47.0,30.00,SSW,210,0.0,3.0,94,0.00,,---,0.00,VWS V13.01,2013-01-01 20:57:00,
2013-01-01 16:27:00,48.7,47.0,30.01,SSW,210,0.0,3.0,94,0.00,,---,0.00,VWS V13.01,2013-01-01 21:27:00,
2013-01-01 16:57:00,48.8,47.2,30.01,SSW,211,0.0,1.0,94,0.00,,---,0.00,VWS V13.01,2013-01-01 21:57:00,
2013-01-01 17:27:00,48.8,47.2,30.00,NW,311,0.0,5.0,94,0.00,,---,0.00,VWS V13.01,2013-01-01 22:27:00,
2013-01-01 17:57:00,48.8,47.2,29.98,NW,311,0.0,2.0,94,0.00,,---,0.00,VWS V13.01,2013-01-01 22:57:00,
2013-01-01 18:27:00,48.6,47.0,29.98,NW,311,0.0,1.0,94,0.00,,---,0.00,VWS V13.01,2013-01-01 23:27:00,
2013-01-01 18:57:00,48.5,46.9,29.99,NW,311,0.0,2.0,94,0.00,,---,0.00,VWS V13.01,2013-01-01 23:57:00,
2013-01-01 19:27:00,48.4,46.8,30.01,NW,311,0.0,3.0,94,0.00,,---,0.00,VWS V13.01,2013-01-02 00:27:00,
2013-01-01 19:57:00,48.2,46.8,29.99,NW,311,0.0,1.0,95,0.00,,---,0.00,VWS V13.01,2013-01-02 00:57:00,
2013-01-01 20:27:00,48.2,46.8,29.99,NW,311,0.0,0.0,95,0.00,,---,0.00,VWS V13.01,2013-01-02 01:27:00,
2013-01-01 20:57:00,48.2,46.8,29.98,NW,311,0.0,0.0,95,0.00,,---,0.00,VWS V13.01,2013-01-02 01:57:00,
2013-01-01 21:27:00,48.1,46.7,29.99,NW,311,0.0,0.0,95,0.01,,---,0.01,VWS V13.01,2013-01-02 02:27:00,
2013-01-01 21:57:00,48.0,46.6,29.96,NW,311,0.0,1.0,95,0.01,,---,0.01,VWS V13.01,2013-01-02 02:57:00,
2013-01-01 22:27:00,47.9,46.5,29.97,NW,311,0.0,0.0,95,0.01,,---,0.01,VWS V13.01,2013-01-02 03:27:00,
2013-01-01 22:57:00,47.8,46.4,29.96,NW,311,0.0,1.0,95,0.00,,---,0.01,VWS V13.01,2013-01-02 03:57:00,
2013-01-01 23:27:00,47.8,46.4,29.95,NW,311,0.0,2.0,95,0.00,,---,0.01,VWS V13.01,2013-01-02 04:27:00,
2013-01-01 23:57:00,47.8,46.4,29.96,NW,311,0.0,1.0,95,0.00,,---,0.00,VWS V13.01,2013-01-02 04:57:00,